Location: Unspecified
(0.0000°N, 0.0000°E)
Time: 14:04:32
(UTC+00:00)

Altair - Pass Details

Date: 21 March 2026
Orbit: 1502 x 1682 km, 47.2° (Epoch: 18 April)

Event Time Altitude Azimuth Distance (km) Brightness Sun altitude
Exits shadow 02:39:01 10° 24° (NNE) 3,652 9.6 -52.1°
Maximum altitude 02:42:21 12° 46° (NE) 3,489 9.6 -51.2°
Drops below altitude 10° 02:45:49 10° 68° (ENE) 3,704 9.9 -50.4°
Sets 02:51:36 0° 95° (E) 4,731 10.7 -48.9°
